This is the latest recevied weather packets stored in our database for station/object K2YYD-2. If no packets are shown the sender has not sent any weather packets the latest 1 day(s).
| Time | Temp. | Humidity | Pressure | Rain* | Wind** | Luminosity | Snow |
|---|---|---|---|---|---|---|---|
| 1778078938 | 15.56° C | 84% | 1006.5 hPa | 0 mm | - | 185 W/m² | - |
| 1778078818 | 15.56° C | 85% | 1006.5 hPa | 0 mm | - | 178 W/m² | - |
| 1778078698 | 15.56° C | 84% | 1006.5 hPa | 0 mm | - | 167 W/m² | - |
| 1778078575 | 16.11° C | 83% | 1006.5 hPa | 0 mm | - | 149 W/m² | - |
| 1778078502 | 16.11° C | 83% | 1006.5 hPa | 0 mm | - | 154 W/m² | - |
| 1778077495 | 16.11° C | 83% | 1006.7 hPa | 0 mm | - | 175 W/m² | - |
| 1778076895 | 16.11° C | 83% | 1006.8 hPa | 0 mm | - | 207 W/m² | - |
| 1778076655 | 16.11° C | 83% | 1006.9 hPa | 0 mm | - | 193 W/m² | - |
| 1778075575 | 16.67° C | 82% | 1007 hPa | 0 mm | - | 266 W/m² | - |
| 1778075456 | 16.67° C | 82% | 1007.1 hPa | 0 mm | - | 306 W/m² | - |
| 1778074973 | 16.11° C | 82% | 1007.2 hPa | 0 mm | - | 279 W/m² | - |
| 1778074733 | 16.11° C | 83% | 1007.1 hPa | 0 mm | - | 353 W/m² | - |
| 1778074613 | 16.11° C | 83% | 1007.2 hPa | 0 mm | - | 328 W/m² | - |
| 1778074130 | 16.11° C | 83% | 1007.1 hPa | 0 mm | - | 264 W/m² | - |
| 1778073290 | 15.56° C | 84% | 1006.9 hPa | 0 mm | - | 511 W/m² | - |
| 1778072931 | 15.56° C | 84% | 1006.8 hPa | 0 mm | - | 418 W/m² | - |
| 1778072570 | 15.56° C | 85% | 1006.8 hPa | 0 mm | - | 356 W/m² | - |
| 1778072451 | 15.56° C | 85% | 1006.8 hPa | 0 mm | - | 236 W/m² | - |
| 1778071971 | 15.56° C | 85% | 1006.8 hPa | 0 mm | - | 190 W/m² | - |
| 1778071851 | 15.56° C | 85% | 1006.8 hPa | 0 mm | - | 193 W/m² | - |
| 1778071371 | 15.56° C | 84% | 1006.9 hPa | 0 mm | - | 158 W/m² | - |
| 1778071130 | 15.56° C | 84% | 1006.9 hPa | 0 mm | - | 165 W/m² | - |
| 1778071011 | 15.56° C | 85% | 1006.8 hPa | 0 mm | - | 200 W/m² | - |
| 1778070891 | 15.56° C | 85% | 1006.9 hPa | 0 mm | - | 240 W/m² | - |
| 1778070771 | 15.56° C | 85% | 1007 hPa | 0 mm | - | 324 W/m² | - |
* Rain latest hour (hover to see other rain measurements)
** Current wind speed in m/s (hover to see current wind gust speed)